Weather in Yunakivka

Ukraine / Sumi District     51°07′13″N   35°02′14″E
temp.,
°C
wind,
m/s
gust,
m/s
humid.,
%
clouds,
%
prec.,
mm/h
press.,
hPa
HPBL,
m
14 april, wed
wed1400:00+9s25855 0.0 1020158
03:00+8sse2488100 0.0 1020103
06:00+7se2393100 0.0 102055
09:00+11se2375100 0.0 1019359
12:00+11se2376100 0.0 1018379
15:00+14sse2458100 0.1 10161157
18:00+14sw2364100 0.0 1016586
21:00+11e2374100 0.1 101656
15 april, thu
thu1500:00+10e118199 0.1 101516
03:00+10ne2380100 0.3 101455
06:00+10s118499 0.0 101315
09:00+12ssw127338 0.3 1013356
12:00+15ssw4457100 2.0 10121240
15:00+16sse344410 2.2 10122121
18:00+12ssw577085 0.1 1012464
21:00+10se258496 0.6 1013260
16 april, fri
fri1600:00+9se379043 0.3 1012426
03:00+7se26945 0.3 1013180
06:00+6ese379343 0.0 1013188
09:00+9sse3578100 0.1 1014629
12:00+12se5659100 0.2 10141647
15:00+9sse467098 0.3 10161046
18:00+8se4680100 0.1 1017719
21:00+8se2585100 0.1 1018265
17 april, sat
sat1700:00+7se248978 0.0 1019127
03:00+5se229497 0.0 101922
06:00+5e0193100 0.0 102010
09:00+9nw1178100 0.0 1020303
12:00+8wnw3593100 5.1 1019845
15:00+7wsw4892100 13.3 1019621
18:00+8w51096100 2.4 1017520
21:00+8e1398100 2.7 1016132
18 april, sun
sun1800:00+7ese61094100 0.1 1019559
03:00+6e5993100 0.1 1020497
06:00+5e5129017 0.0 1021580
09:00+8ese597715 0.0 1022917
12:00+10ese366493 0.0 10231313
15:00+10n237199 0.0 1023313
18:00+11nne25705 0.0 1024408
21:00+8ne310885 0.0 1025306